This is the latest recevied weather packets stored in our database for station/object KE8ZLU. If no packets are shown the sender has not sent any weather packets the latest 10 day(s).
| Time | Temp. | Humidity | Pressure | Rain* | Wind** | Luminosity | Snow |
|---|---|---|---|---|---|---|---|
| 1777946879 | 19.44° C | 66% | 1001 hPa | 0 mm | - | 0 W/m² | - |
| 1777946574 | 18.89° C | 68% | 1001.1 hPa | 0 mm | - | 0 W/m² | - |
| 1777946272 | 18.89° C | 68% | 1000.9 hPa | 0 mm | - | 0 W/m² | - |
| 1777945969 | 18.89° C | 68% | 1000.9 hPa | 0 mm | - | 0 W/m² | - |
| 1777945666 | 18.89° C | 68% | 1000.9 hPa | 0 mm | - | 0 W/m² | - |
| 1777945363 | 18.89° C | 68% | 1000.8 hPa | 0 mm | - | 0 W/m² | - |
| 1777945059 | 18.89° C | 69% | 1000.9 hPa | 0 mm | - | 0 W/m² | - |
| 1777944757 | 18.89° C | 68% | 1000.8 hPa | 0 mm | - | 0 W/m² | - |
| 1777944455 | 18.89° C | 68% | 1000.7 hPa | 0 mm | - | 0 W/m² | - |
| 1777944152 | 18.89° C | 67% | 1000.6 hPa | 0 mm | - | 0 W/m² | - |
| 1777943847 | 19.44° C | 66% | 1000.7 hPa | 0 mm | - | 0 W/m² | - |
| 1777943545 | 19.44° C | 66% | 1000.6 hPa | 0 mm | - | 0 W/m² | - |
| 1777943240 | 19.44° C | 64% | 1000.7 hPa | 0 mm | - | 0 W/m² | - |
| 1777942937 | 20° C | 63% | 1000.8 hPa | 0 mm | - | 0 W/m² | - |
| 1777942633 | 20° C | 63% | 1000.6 hPa | 0 mm | - | 0 W/m² | - |
| 1777942331 | 20° C | 63% | 1000.7 hPa | 0 mm | - | 1 W/m² | - |
| 1777942028 | 20° C | 62% | 1000.5 hPa | 0 mm | - | 1 W/m² | - |
| 1777941724 | 20.56° C | 61% | 1000.5 hPa | 0 mm | - | 3 W/m² | - |
| 1777941421 | 20.56° C | 60% | 1000.3 hPa | 0 mm | - | 5 W/m² | - |
| 1777941119 | 20.56° C | 60% | 1000.6 hPa | 0 mm | - | 7 W/m² | - |
| 1777940815 | 20.56° C | 59% | 1000.3 hPa | 0 mm | - | 11 W/m² | - |
| 1777940513 | 20.56° C | 59% | 1000.4 hPa | 0 mm | - | 14 W/m² | - |
| 1777940210 | 20.56° C | 60% | 1000.1 hPa | 0 mm | - | 14 W/m² | - |
| 1777939907 | 20.56° C | 59% | 1000.3 hPa | 0 mm | - | 20 W/m² | - |
| 1777939604 | 20.56° C | 58% | 1000.1 hPa | 0 mm | - | 20 W/m² | - |
* Rain latest hour (hover to see other rain measurements)
** Current wind speed in m/s (hover to see current wind gust speed)